Location: Dunedin
(45.8670°S, 170.5000°E)
Time: 21:20:14
(UTC+13:00)

Gbstr 26 Del rocket - Pass Details

Date: 24 January 2019
Orbit: 493 x 1264 km, 51.8° (Epoch: 17 October)

Event Time Altitude Azimuth Distance (km) Brightness Sun altitude
Rises 23:37:07 0° 245° (WSW) 2,793 7.4 -18.3°
Reaches altitude 10° 23:39:32 10° 239° (WSW) 1,820 6.4 -18.5°
Maximum altitude 23:43:26 47° 163° (SSE) 691 3.5 -18.9°
Enters shadow 23:45:25 24° 100° (E) 1,091 4.1 -19.1°
